Temp
24 23 23 25 27 26 25 31 32 30 30 30 29 29 28 27 27 25 23 21 21 20 18 19 19 19 19 19 19 19 19 19 19 19 19 19 19 18 19 19 19 18 18 18 18 19 18 18 18
25 24 25 28 21 27 27 31 30 30 30 29 29 28 27 26 25 24 21 22 22 20 19 18 19 19 19 19 19 19 19 19 19 19 19 19 19 18 19 19 19 18 18 18 18 19 19 19 18
24 24 28 31 27 25 28 29 31 30 29 29 28 27 27 25 25 25 22 23 22 21 20 19 19 19 19 19 19 19 19 19 19 19 19 19 18 19 18 18 18 19 19 18 18 18 18 18 18
26 28 29 24 28 30 30 29 31 30 30 29 28 26 23 24 24 24 23 22 23 22 21 19 19 19 19 19 19 19 19 18 18 19 19 19 19 19 18 18 18 18 18 18 19 18 18 18 18
28 30 30 28 29 30 31 29 29 28 29 29 29 27 24 24 24 23 23 21 23 23 19 19 19 19 19 19 19 19 19 19 19 19 19 19 19 18 18 18 17 18 18 18 18 18 18 18 18
30 31 28 30 30 31 31 30 29 30 29 28 28 25 21 22 23 23 23 22 24 23 20 17 19 19 19 19 19 19 19 19 19 19 19 19 19 19 19 18 18 18 18 17 18 19 18 18 18
32 33 32 31 30 30 30 29 29 30 30 29 28 27 21 22 23 23 24 24 24 23 21 18 17 18 19 19 19 19 19 19 19 19 19 19 19 19 19 18 18 18 18 18 17 18 18 18 19
32 34 32 32 31 30 30 29 29 29 28 27 27 26 24 23 23 23 24 24 24 23 22 20 19 17 17 17 18 18 19 19 19 19 19 19 18 18 19 18 18 18 18 17 17 18 18 17 18
32 30 31 32 32 31 30 30 29 28 28 27 26 26 24 23 23 23 23 23 23 23 22 21 21 19 18 18 17 18 18 18 18 18 18 18 17 16 17 18 18 18 18 17 18 18 17 17 17
35 32 32 34 34 32 31 31 29 28 28 27 26 26 24 23 23 24 23 23 23 23 23 22 21 21 20 19 18 17 17 17 18 18 17 17 17 17 17 18 18 18 18 18 18 18 17 17 17
34 33 34 33 32 31 31 30 30 30 26 29 26 25 24 24 24 24 23 23 23 22 23 22 21 21 20 20 18 17 18 18 18 17 17 17 17 17 18 18 18 17 18 17 18 17 17 18 19
33 33 33 32 31 31 31 29 30 28 29 28 26 25 24 24 24 24 24 24 23 23 22 22 21 20 20 20 19 18 18 18 17 18 17 16 16 16 17 17 17 17 17 18 18 18 17 17 17
34 34 33 32 32 31 30 30 30 28 27 28 26 25 25 25 25 25 24 24 24 23 22 22 21 20 19 19 18 18 17 17 17 17 16 17 16 16 16 17 17 17 17 18 18 17 17 17 18
34 34 33 32 32 31 31 30 30 29 28 27 26 26 25 25 25 25 25 25 24 24 23 22 21 20 19 18 17 18 17 17 17 16 17 16 16 17 17 17 17 17 18 18 18 17 17 17 18
34 33 34 33 33 31 26 30 30 29 28 28 27 27 26 26 25 25 25 24 24 23 23 22 21 20 18 17 17 17 18 16 17 17 16 16 16 16 16 16 16 17 18 17 17 17 17 17 17
34 35 21 33 33 26 19 28 30 28 28 28 28 27 27 26 26 25 25 25 24 24 23 22 22 21 19 19 17 17 17 17 17 17 16 17 16 16 16 16 16 17 18 17 17 17 17 17 17
34 19 26 33 33 33 28 31 30 29 29 29 29 28 27 27 26 26 25 25 24 23 22 22 21 21 20 19 18 18 18 17 17 17 16 17 17 16 16 16 17 17 18 18 18 18 18 18 18
31 24 32 33 33 33 33 33 31 30 30 30 29 28 28 27 27 26 26 25 25 24 23 22 21 20 20 20 19 18 18 17 18 18 18 18 17 17 17 17 17 17 17 17 17 18 18 17 17
30 31 34 35 35 34 33 34 33 31 31 31 29 29 28 28 28 27 26 26 25 25 23 22 21 20 19 19 19 19 18 19 18 18 18 18 18 17 17 18 17 18 18 18 18 17 18 17 17
35 35 33 34 35 34 34 34 35 33 32 31 30 30 30 29 29 28 27 26 26 25 23 22 21 20 19 20 20 20 19 19 19 18 18 18 17 17 17 18 18 18 17 17 17 17 17 17 17
35 33 28 30 35 35 34 32 32 34 32 32 31 30 30 30 29 28 28 27 26 26 24 22 21 20 19 20 20 19 19 19 19 19 19 18 18 17 17 18 18 18 18 17 17 17 18 17 17
32 33 34 34 33 26 27 22 25 34 33 33 32 31 31 30 30 29 28 28 27 26 25 23 22 20 19 19 20 20 19 20 19 19 19 19 18 18 18 17 17 18 18 18 17 17 18 17 18
31 34 34 34 34 31 31 31 32 35 33 33 33 32 31 31 30 30 29 28 28 27 26 24 22 20 20 21 21 20 19 20 20 19 19 19 19 18 18 18 18 18 18 18 18 18 18 18 18
35 34 35 35 35 33 33 32 33 28 34 34 34 33 32 31 31 30 30 29 28 27 26 25 22 21 20 20 21 21 20 20 20 19 19 19 19 19 19 18 18 17 17 17 18 18 18 18 18
34 34 33 31 33 30 34 34 31 34 34 34 33 33 33 32 31 31 30 29 29 28 27 25 22 20 21 19 19 19 19 19 19 19 19 20 19 19 19 19 18 18 19 17 17 17 18 18 18
34 34 33 28 29 23 31 33 33 35 33 32 32 32 31 32 31 31 30 29 29 27 26 24 22 21 20 20 20 19 19 19 19 19 19 19 20 20 19 19 18 18 18 17 18 18 17 18 18
33 33 35 28 25 30 31 32 35 34 33 33 31 31 30 31 31 30 29 28 27 26 24 23 22 21 21 21 20 19 19 19 19 20 19 19 19 19 19 19 19 18 18 18 18 18 18 18 18
34 34 32 34 30 30 32 30 31 33 32 32 32 30 29 28 26 26 26 25 25 24 23 22 21 20 21 20 20 19 19 19 18 18 19 19 19 19 18 18 18 18 18 18 18 19 18 18 18
34 33 34 33 32 29 30 31 29 32 32 32 31 29 28 27 26 25 25 24 24 24 23 23 21 19 19 21 21 20 18 18 18 17 17 18 19 18 17 17 18 18 19 19 19 19 19 18 18
35 34 35 34 33 34 34 31 34 33 33 31 30 29 27 26 25 25 24 23 23 21 20 19 19 18 18 18 18 17 17 17 17 18 17 17 18 18 17 17 17 18 18 19 19 17 18 18 17
Height
1486 1486 1487 1485 1486 1476 1493 1478 1471 1481 1482 1486 1490 1490 1494 1500 1500 1514 1522 1529 1533 1538 1538 1540 1543 1545 1548 1550 1553 1554 1554 1555 1556 1557 1558 1559 1560 1560 1561 1561 1562 1564 1565 1566 1567 1568 1569 1570 1571
1494 1493 1489 1482 1497 1491 1494 1476 1481 1482 1486 1492 1495 1496 1498 1507 1510 1515 1523 1530 1535 1538 1542 1543 1545 1547 1550 1552 1554 1556 1557 1557 1558 1559 1560 1561 1562 1563 1563 1564 1565 1566 1568 1569 1569 1571 1572 1572 1573
1493 1494 1487 1474 1485 1502 1495 1483 1482 1487 1492 1492 1497 1501 1503 1514 1516 1519 1526 1531 1535 1540 1544 1543 1546 1549 1551 1553 1555 1557 1558 1559 1560 1561 1562 1563 1564 1565 1565 1566 1567 1568 1570 1571 1572 1573 1575 1574 1575
1495 1491 1486 1496 1492 1481 1484 1489 1486 1491 1493 1494 1498 1507 1516 1517 1520 1523 1529 1533 1537 1541 1545 1545 1547 1550 1552 1555 1557 1558 1560 1561 1562 1563 1564 1565 1566 1567 1567 1568 1569 1571 1572 1573 1574 1575 1576 1576 1577
1490 1483 1483 1492 1489 1485 1484 1490 1493 1494 1496 1496 1498 1506 1517 1521 1523 1526 1531 1536 1538 1542 1544 1546 1548 1551 1553 1556 1558 1560 1561 1563 1564 1564 1566 1567 1568 1568 1569 1570 1571 1572 1573 1574 1575 1576 1576 1577 1578
1486 1482 1491 1489 1490 1485 1488 1490 1492 1493 1497 1501 1503 1513 1523 1524 1525 1529 1532 1538 1539 1542 1547 1548 1549 1552 1555 1557 1560 1561 1562 1563 1564 1566 1567 1567 1568 1568 1569 1570 1571 1572 1573 1574 1575 1576 1577 1577 1578
1479 1475 1483 1485 1489 1489 1491 1493 1493 1492 1494 1500 1503 1508 1522 1524 1527 1531 1534 1537 1540 1544 1549 1551 1552 1553 1556 1558 1561 1562 1564 1565 1566 1566 1567 1567 1567 1568 1568 1570 1571 1573 1574 1575 1575 1575 1576 1577 1578
1481 1473 1482 1482 1487 1495 1492 1494 1497 1498 1502 1505 1505 1508 1517 1522 1528 1532 1536 1538 1541 1545 1549 1554 1556 1557 1559 1560 1561 1563 1565 1566 1566 1567 1566 1566 1568 1572 1570 1569 1570 1572 1573 1574 1574 1574 1575 1576 1577
1485 1485 1487 1484 1486 1491 1492 1493 1499 1501 1504 1506 1508 1509 1517 1524 1529 1533 1537 1540 1542 1546 1548 1553 1556 1559 1561 1563 1563 1563 1565 1566 1567 1566 1566 1565 1574 1557 1571 1568 1570 1571 1572 1572 1572 1572 1573 1574 1575
1475 1485 1483 1479 1479 1488 1491 1492 1497 1502 1503 1508 1510 1513 1519 1525 1528 1532 1536 1539 1542 1546 1548 1552 1555 1558 1561 1563 1563 1565 1565 1566 1566 1566 1565 1564 1569 1573 1568 1567 1569 1571 1571 1571 1571 1571 1571 1571 1575
1478 1481 1478 1483 1487 1489 1493 1495 1494 1497 1506 1501 1512 1516 1520 1525 1529 1532 1536 1539 1542 1546 1548 1551 1554 1557 1559 1562 1560 1563 1563 1563 1564 1566 1566 1566 1565 1566 1566 1570 1571 1571 1571 1572 1570 1570 1569 1572 1572
1478 1482 1480 1487 1491 1492 1493 1497 1494 1500 1502 1502 1512 1517 1521 1525 1528 1531 1534 1537 1540 1544 1547 1550 1553 1556 1558 1559 1561 1561 1560 1562 1563 1565 1566 1566 1565 1566 1567 1568 1569 1570 1571 1571 1570 1570 1568 1569 1567
1475 1481 1484 1487 1489 1491 1495 1497 1497 1502 1506 1506 1512 1517 1521 1525 1528 1531 1534 1536 1539 1543 1546 1549 1552 1553 1557 1558 1559 1559 1560 1560 1563 1564 1564 1564 1565 1564 1564 1567 1568 1569 1569 1569 1567 1567 1567 1566 1568
1475 1478 1482 1483 1487 1492 1494 1499 1494 1502 1504 1508 1513 1516 1520 1524 1527 1529 1532 1535 1538 1541 1544 1548 1550 1552 1554 1556 1557 1557 1557 1560 1563 1562 1563 1563 1564 1562 1563 1565 1566 1566 1567 1566 1565 1566 1566 1565 1567
1476 1478 1481 1483 1483 1490 1498 1496 1498 1502 1504 1507 1511 1514 1518 1522 1526 1529 1532 1535 1538 1540 1543 1546 1548 1549 1550 1552 1554 1554 1556 1558 1561 1561 1562 1562 1561 1560 1561 1562 1562 1562 1564 1564 1563 1564 1563 1561 1561
1475 1470 1525 1485 1485 1498 1517 1502 1498 1502 1503 1506 1508 1513 1517 1521 1524 1528 1531 1534 1536 1539 1542 1544 1546 1547 1548 1551 1552 1553 1555 1556 1556 1556 1558 1557 1556 1557 1558 1558 1558 1560 1561 1561 1560 1560 1561 1560 1559
1470 1540 1510 1481 1479 1480 1489 1481 1494 1499 1501 1502 1506 1510 1516 1519 1522 1525 1529 1532 1533 1537 1539 1543 1544 1546 1547 1549 1549 1550 1553 1552 1554 1553 1553 1555 1554 1554 1554 1555 1556 1558 1558 1556 1557 1557 1557 1557 1557
1492 1517 1481 1476 1479 1477 1475 1477 1488 1495 1495 1498 1503 1507 1512 1514 1518 1521 1525 1528 1532 1534 1538 1541 1542 1544 1545 1547 1546 1547 1549 1550 1550 1550 1549 1552 1551 1552 1552 1554 1554 1554 1553 1553 1554 1554 1553 1554 1554
1486 1483 1471 1465 1465 1474 1473 1472 1475 1488 1492 1494 1499 1503 1507 1509 1512 1516 1521 1524 1528 1531 1535 1537 1539 1541 1542 1544 1544 1545 1545 1547 1547 1547 1547 1549 1551 1550 1549 1551 1551 1551 1550 1550 1551 1551 1551 1551 1552
1466 1468 1476 1473 1467 1473 1469 1469 1467 1478 1486 1489 1495 1499 1501 1504 1507 1512 1516 1520 1523 1528 1532 1534 1536 1538 1538 1542 1544 1543 1543 1543 1545 1546 1547 1548 1548 1548 1547 1547 1547 1547 1547 1546 1547 1549 1548 1548 1548
1465 1473 1499 1500 1469 1467 1472 1481 1478 1470 1479 1485 1491 1494 1495 1499 1503 1507 1512 1516 1520 1523 1527 1531 1533 1535 1536 1539 1541 1542 1542 1542 1542 1542 1545 1545 1546 1545 1544 1543 1543 1544 1543 1544 1543 1543 1545 1545 1544
1482 1473 1471 1474 1476 1519 1497 1546 1504 1466 1472 1477 1483 1488 1490 1494 1500 1503 1508 1512 1515 1520 1524 1527 1529 1530 1532 1534 1538 1539 1539 1539 1541 1541 1543 1544 1543 1542 1542 1541 1541 1539 1539 1539 1540 1540 1543 1542 1543
1491 1475 1471 1467 1470 1484 1489 1496 1474 1460 1464 1468 1475 1479 1484 1489 1494 1498 1503 1508 1512 1515 1519 1523 1526 1527 1528 1530 1532 1535 1535 1538 1538 1540 1539 1540 1540 1539 1538 1538 1538 1537 1536 1536 1537 1537 1538 1540 1541
1466 1470 1467 1464 1465 1483 1479 1479 1476 1500 1462 1464 1466 1472 1477 1484 1489 1496 1500 1505 1509 1513 1516 1520 1522 1522 1525 1527 1528 1530 1533 1534 1536 1536 1537 1538 1538 1537 1537 1536 1536 1537 1537 1536 1535 1535 1535 1537 1538
1468 1471 1484 1499 1484 1501 1463 1468 1479 1462 1462 1464 1469 1470 1473 1478 1486 1491 1497 1502 1506 1510 1513 1517 1520 1521 1521 1524 1526 1527 1529 1532 1533 1534 1535 1535 1534 1535 1535 1534 1534 1533 1534 1535 1535 1535 1535 1535 1536
1464 1464 1481 1518 1506 1535 1477 1474 1463 1456 1463 1467 1471 1473 1476 1476 1482 1489 1493 1498 1502 1507 1511 1515 1517 1519 1520 1521 1523 1525 1526 1527 1529 1531 1529 1529 1530 1532 1533 1531 1532 1532 1532 1533 1532 1534 1535 1535 1534
1472 1475 1451 1500 1512 1496 1481 1470 1453 1458 1462 1468 1472 1477 1479 1479 1482 1489 1493 1498 1503 1508 1511 1513 1515 1516 1518 1519 1521 1523 1523 1524 1526 1525 1525 1526 1526 1528 1529 1530 1529 1531 1530 1530 1531 1532 1535 1534 1535
1460 1466 1477 1459 1498 1504 1478 1488 1479 1463 1466 1470 1473 1479 1484 1488 1491 1495 1499 1503 1507 1509 1510 1512 1513 1514 1517 1518 1518 1519 1518 1519 1519 1520 1521 1521 1524 1525 1525 1525 1527 1528 1528 1529 1531 1532 1531 1533 1535
1464 1467 1460 1468 1475 1502 1498 1484 1475 1458 1463 1468 1473 1480 1486 1490 1494 1498 1501 1505 1507 1509 1510 1512 1513 1511 1511 1511 1513 1514 1516 1515 1515 1516 1518 1518 1517 1524 1525 1522 1523 1525 1525 1527 1528 1529 1529 1530 1532
1448 1454 1451 1463 1471 1458 1458 1476 1450 1455 1465 1472 1476 1482 1488 1492 1496 1499 1502 1505 1507 1509 1510 1510 1512 1512 1511 1511 1512 1513 1513 1514 1514 1515 1516 1517 1516 1518 1510 1516 1522 1523 1522 1523 1524 1527 1526 1526 1529
Wind_Speed
3 3 2 10 5 4 5 13 14 13 10 15 8 12 14 19 12 11 30 27 26 23 23 25 23 22 20 19 17 16 13 12 13 12 11 11 9 9 8 10 10 10 10 9 10 10 12 12 12
2 3 7 10 4 9 4 10 12 11 13 12 11 6 17 16 12 32 29 27 25 23 21 21 22 20 19 17 16 15 13 11 11 10 9 10 10 9 9 10 10 12 10 10 10 10 12 14 14
4 5 13 5 5 6 6 8 11 11 16 11 7 8 10 10 23 25 26 28 25 22 20 21 22 20 19 17 15 14 13 12 11 11 11 11 10 9 10 9 9 9 8 10 10 9 9 11 9
4 6 6 5 11 9 13 5 13 11 10 7 10 12 10 11 22 22 27 27 24 23 20 23 21 19 17 16 15 14 13 11 10 9 8 8 8 8 8 8 7 8 6 6 7 6 6 8 8
5 7 3 6 11 8 10 6 14 5 3 5 1 15 14 16 14 25 26 25 24 23 18 21 19 18 17 16 15 14 12 10 8 8 7 5 5 6 5 5 4 4 4 3 4 6 5 5 6
12 1 3 8 9 6 7 5 8 9 7 8 14 16 8 13 20 26 25 21 22 21 16 18 19 17 17 17 15 13 12 10 8 6 5 4 3 2 2 1 2 2 2 1 1 2 4 4 4
10 5 10 11 6 6 8 5 4 7 8 9 3 11 11 18 25 25 23 21 21 19 18 16 16 18 18 16 14 12 10 8 7 5 4 3 3 3 3 2 2 3 3 4 5 5 5 6 6
6 2 11 7 11 6 6 7 5 9 13 8 4 8 19 26 27 24 22 21 21 18 18 17 15 15 13 13 13 11 9 7 6 5 6 5 3 3 3 2 4 3 4 5 6 8 9 8 8
3 3 8 12 12 8 8 10 7 7 10 9 3 15 25 28 26 24 22 22 20 19 18 17 16 14 12 11 10 11 8 6 6 9 7 5 2 12 9 4 9 8 6 6 7 7 8 10 10
7 2 12 12 15 10 4 10 8 8 9 11 9 20 26 27 26 24 23 23 22 21 18 18 17 14 14 11 14 8 10 9 10 11 13 12 14 8 6 4 8 8 7 7 8 9 10 9 8
2 8 8 14 11 9 8 8 6 12 5 13 15 23 25 26 24 22 21 21 21 20 19 18 18 16 16 13 14 11 13 13 14 17 20 16 18 16 7 7 6 5 11 6 12 9 10 10 12
6 8 9 8 8 8 9 6 4 11 2 13 16 21 24 25 23 21 20 20 20 20 19 18 18 17 16 18 15 16 17 16 18 16 17 20 19 13 16 7 14 8 8 9 12 10 12 11 11
1 10 6 7 7 10 8 6 6 13 6 14 17 18 21 22 20 19 18 17 18 19 19 18 17 19 17 15 17 22 18 15 16 16 16 12 11 14 9 9 11 13 11 12 14 12 11 8 10
4 7 9 9 9 7 10 5 8 11 13 16 16 17 18 20 20 18 17 17 17 16 17 16 17 17 17 19 18 18 18 15 12 15 11 16 13 11 13 13 15 14 11 12 12 7 8 12 11
10 11 8 8 9 15 26 5 9 12 14 16 17 16 18 19 19 18 16 15 16 15 15 16 16 18 19 17 18 15 20 14 14 14 14 16 14 13 12 15 15 14 11 12 10 9 12 9 6
10 10 14 3 5 26 27 13 11 14 15 15 17 17 17 17 18 16 16 15 15 13 14 14 14 15 16 15 16 16 13 14 18 19 14 17 15 14 16 14 11 10 13 11 12 9 10 6 9
5 6 19 12 7 2 13 19 14 14 15 15 16 18 18 16 17 17 17 16 16 14 15 13 13 13 15 14 18 15 15 18 16 16 13 14 15 14 14 11 10 13 12 19 13 12 9 9 11
11 19 5 3 6 3 5 8 14 14 15 15 16 18 20 19 18 18 17 16 15 16 14 15 14 14 15 14 17 17 15 14 17 16 15 10 9 14 14 9 11 12 17 12 11 10 9 10 10
15 25 15 8 11 3 7 4 17 17 15 16 18 20 21 20 20 19 19 19 17 16 16 17 16 15 16 14 16 15 15 14 15 10 9 11 13 12 15 12 14 15 14 14 13 10 10 9 12
9 5 10 14 4 5 5 5 7 17 17 18 17 18 20 20 21 19 19 19 19 18 17 17 17 17 16 13 11 13 11 11 11 9 12 11 12 11 13 12 13 15 15 14 13 12 12 14 12
11 8 11 16 12 8 10 11 13 15 19 17 18 18 19 20 20 20 19 19 18 18 17 18 18 18 17 16 11 11 14 11 9 10 11 13 11 12 14 12 11 11 12 13 11 10 12 12 10
4 19 10 5 3 5 14 5 18 14 16 16 20 21 21 20 20 19 19 18 18 16 15 17 19 19 18 16 14 14 13 10 8 4 6 8 10 13 13 12 11 8 8 10 13 19 17 13 12
12 13 10 12 11 11 3 2 13 10 18 18 19 23 23 22 22 20 19 18 15 15 15 16 17 19 18 16 16 14 12 10 9 7 8 8 9 10 10 12 11 7 4 6 8 8 9 10 12
7 10 13 13 13 4 11 16 17 5 4 6 6 19 24 23 21 19 17 16 14 13 13 15 18 18 17 17 15 17 14 12 12 12 11 9 6 11 10 11 10 9 5 4 4 5 8 8 9
11 16 10 6 10 5 7 9 7 4 8 7 5 6 17 22 21 21 18 17 16 15 14 14 15 15 16 16 15 14 14 13 12 12 10 11 11 8 11 10 10 8 5 6 3 5 6 5 6
11 15 7 1 5 2 21 4 12 13 13 9 7 6 6 14 21 18 16 16 14 13 13 13 13 14 15 15 16 15 15 13 12 13 14 13 14 12 9 11 9 8 8 6 4 3 2 6 5
14 16 15 14 14 15 10 5 6 13 12 11 11 9 6 6 5 9 9 10 9 11 12 12 11 12 14 14 13 14 15 14 13 15 15 13 13 13 14 12 8 8 7 6 5 3 1 4 4
15 13 14 6 4 7 7 7 8 14 11 11 11 12 12 11 8 8 8 7 6 6 6 6 7 6 8 9 11 12 14 14 13 15 17 12 15 15 13 13 10 8 7 6 4 3 5 2 2
11 14 16 16 6 7 11 11 20 13 12 12 13 14 14 13 12 11 10 9 7 5 4 3 4 8 11 13 14 14 15 18 17 13 10 15 18 16 15 14 15 8 4 6 10 8 5 5 6
18 14 18 12 14 10 9 10 11 14 10 12 15 15 14 13 12 11 10 9 7 6 6 5 2 4 3 2 1 2 4 6 7 11 14 8 11 20 13 14 23 19 10 10 11 7 6 4 9
Wind_Direction
77 97 336 277 266 184 38 91 91 107 104 98 87 64 74 35 32 95 139 143 145 144 148 150 150 148 148 147 148 145 135 129 125 124 122 119 113 104 100 110 116 107 97 100 102 104 111 114 109
73 242 269 277 152 68 53 82 78 93 102 102 94 63 83 66 94 128 132 144 144 147 143 151 159 158 156 156 154 150 145 136 125 120 119 120 121 110 101 100 109 113 105 110 106 104 113 115 114
103 260 273 294 43 58 110 105 78 95 128 114 104 65 41 83 126 134 142 146 147 143 150 161 154 156 155 155 154 151 148 140 131 119 119 123 124 116 108 98 91 100 107 119 115 113 111 125 120
265 223 225 181 71 57 76 75 105 114 148 73 103 94 84 125 134 140 145 148 149 147 159 161 158 161 161 159 159 154 148 135 130 127 126 127 125 106 106 106 102 102 82 100 120 122 126 139 138
236 237 350 118 72 76 87 86 91 295 82 116 20 89 115 131 142 148 149 150 149 151 151 164 164 168 167 165 161 156 151 145 141 138 138 136 129 124 122 111 103 103 125 133 115 147 134 143 166
265 6 190 73 81 116 101 83 76 95 80 88 106 110 128 154 150 153 153 149 155 152 155 164 166 169 168 165 163 164 158 155 154 155 158 157 159 156 149 131 163 172 178 215 209 195 204 212 191
261 72 48 73 133 77 109 130 125 101 119 88 114 96 135 162 156 154 157 154 156 154 159 164 163 169 170 172 175 175 168 168 167 177 174 194 222 222 215 244 290 271 249 236 234 230 230 226 220
292 50 86 78 76 94 109 112 80 81 71 118 342 131 153 154 155 154 159 160 161 161 166 164 171 169 172 178 187 187 183 191 193 193 203 220 249 300 283 317 300 284 262 262 252 245 239 243 237
245 302 58 66 70 121 163 117 67 90 126 62 72 133 147 152 154 157 161 165 166 168 170 172 176 177 177 184 211 196 203 217 209 214 216 239 328 263 215 217 277 276 270 259 256 253 242 247 248
286 322 70 26 59 97 122 114 141 117 124 103 112 124 148 156 160 163 168 171 173 176 177 176 179 185 190 195 219 206 220 209 227 227 251 268 263 268 281 271 284 273 284 281 276 264 257 249 236
12 69 75 61 50 86 103 118 177 141 111 133 142 148 158 162 166 170 174 178 179 181 181 184 186 187 194 197 208 209 221 227 233 250 263 266 266 289 257 272 288 295 292 299 284 269 251 234 232
116 69 61 87 97 111 90 130 129 103 114 113 144 156 163 168 172 176 179 180 183 184 187 191 193 194 200 212 226 236 229 232 247 267 276 267 275 258 242 254 263 285 273 272 263 256 254 223 231
40 102 96 109 118 99 123 69 136 104 128 123 143 154 166 174 177 180 182 183 186 190 193 196 197 198 209 213 219 232 227 236 256 257 273 255 265 252 244 253 256 258 262 269 260 237 258 231 235
108 102 137 157 127 130 108 123 151 124 147 134 148 157 168 179 182 182 187 187 191 192 196 201 205 208 213 217 224 229 230 242 240 259 258 272 260 268 249 252 258 271 261 265 263 251 254 248 248
145 174 169 150 161 93 34 208 95 137 144 149 161 168 167 176 182 187 190 187 191 194 196 202 206 207 218 219 222 231 236 233 239 241 248 241 252 263 256 261 252 253 240 247 245 239 264 285 225
222 231 51 152 169 121 121 131 134 150 157 165 169 170 170 176 183 190 192 193 188 194 195 201 209 212 209 214 225 218 233 231 237 241 237 254 242 250 258 258 248 246 229 238 248 259 259 283 238
160 40 272 149 155 132 187 115 141 161 168 170 176 175 183 185 190 192 197 200 197 197 193 201 206 213 216 216 232 230 222 239 240 243 239 241 253 253 253 252 246 232 233 243 252 235 263 278 248
269 174 273 128 164 179 234 127 150 174 177 174 179 178 190 194 199 194 202 201 204 198 206 207 208 208 212 222 231 242 228 232 244 246 241 237 234 246 249 237 233 228 229 244 255 255 250 270 259
223 256 193 178 108 240 231 238 150 179 192 178 183 181 189 200 196 201 202 203 205 208 204 209 207 209 209 218 229 247 238 238 247 255 234 241 240 239 246 227 237 239 239 248 247 252 268 254 261
242 257 28 2 95 253 264 242 166 169 195 184 193 188 195 200 196 201 201 206 209 211 213 214 211 211 215 217 229 249 263 255 244 235 247 242 236 240 258 251 240 252 252 257 256 244 252 271 256
242 113 109 249 242 225 312 346 315 176 185 195 189 198 202 199 201 195 204 206 208 209 209 215 215 212 217 206 226 234 233 241 247 243 242 240 236 237 241 242 249 261 266 248 252 250 251 283 281
37 309 283 253 263 122 273 166 271 191 177 189 199 198 205 200 201 194 202 205 206 208 211 214 212 208 216 216 212 230 243 256 269 276 222 236 229 237 241 242 243 260 287 258 253 253 250 271 264
151 216 286 301 276 155 236 114 199 202 175 177 202 203 208 203 196 204 201 203 212 209 212 213 210 211 205 227 213 223 236 245 276 228 226 243 234 239 231 240 242 253 293 294 254 235 241 249 248
317 265 246 249 244 255 225 219 79 256 37 113 196 202 204 203 206 201 206 206 212 214 211 210 207 206 211 216 231 224 221 233 227 228 232 239 221 249 242 231 234 242 244 258 279 288 255 247 243
244 256 260 287 244 344 210 277 112 163 97 103 145 185 207 199 208 202 208 213 215 220 217 210 207 210 209 213 221 232 234 235 235 235 235 230 235 247 262 236 222 225 245 222 233 266 270 251 241
253 269 280 173 321 201 288 251 123 123 114 114 129 156 203 214 193 213 207 215 214 221 214 213 208 205 215 215 222 225 232 230 243 251 243 240 237 218 235 245 220 214 221 235 241 284 247 270 275
227 252 252 174 246 253 178 328 226 123 123 125 117 120 123 163 133 169 215 200 203 211 209 211 214 211 216 222 224 231 234 239 232 228 241 247 248 240 235 233 219 221 218 199 213 107 224 281 329
245 244 292 240 242 313 17 354 291 174 135 129 128 119 114 117 133 151 162 165 178 185 190 197 207 226 233 227 228 226 227 231 230 234 246 247 253 250 242 222 197 203 215 179 161 219 222 216 271
211 236 258 222 193 254 251 215 239 150 158 144 131 132 131 130 129 136 144 152 153 147 146 158 155 210 200 220 235 245 246 237 240 235 238 248 267 271 248 235 235 181 179 206 192 204 233 258 272
238 253 238 243 228 265 309 116 82 85 126 137 124 131 130 132 133 137 139 137 130 122 113 118 154 92 75 16 354 317 322 301 300 276 255 243 251 250 243 251 251 232 239 233 237 210 229 247 274